sat.trackr.live / text

‹ back to catalog

STARLINK-30301

NORAD 57666 · 2023-124D

PAYLOAD ACTIVE UNKNOWN

§ Identity

Operator
Country
US
Launch date
2023-08-22
Launch site
AFWTR
Launch vehicle
Mass (kg)
RCS (m²)

Purposes: comms

External: N2YO · Heavens-Above · Gunter

§ Orbital elements

Epoch: 2026-05-24T18:04:10.996320Z

Period
93.97 min
Inclination
53.1605°
Eccentricity
0.0000675
Mean motion
15.32464099 rev/d
Perigee alt
468.0 km
Apogee alt
468.9 km
Semi-major
6,846.6 km
B*
8.6804e-4
RAAN
274.9339°
Arg perigee
41.4155°
Mean anomaly
318.6898°
Rev number
15,432

§ Raw data

STARLINK-303011 57666U 23124D   26144.75290505  .00027321  00000+0  86804-3 0  99952 57666  53.1605 274.9339 0000675  41.4155 318.6898 15.32464099154328

JSON: /api/v1/satellites/57666 · /tle

For live sub-satellite position, see the globe view (requires WebGL).

§ Visibility from observer

Set your observer location to see the next 7 days of passes ≥ 10°. The values pass through the URL so the page stays shareable.

No JS? Fill the form by hand. The geolocation button needs JavaScript.